HomeShort term forecast

Short term forecast

Graphical weather forecast for the next 48 hours for Montreal:
Short term forecast
This weather forecast is automatically refreshed every 3 hours.

Hourly Experimental Forecast for the next 48 hours ®

Overall summary: Clear throughout the day.

 Date & Hour   Temp   Feel   Baro   Hum   Speed & Bearing   Precipitation   Visibility   Cloud cover   Conditions 
 22/04/2018 - 15:00  13.1°C  13.1°C  1029.0 hPa  28%  11.9 km/h   0.01 mm/h  16.1km  0%  Clear 
 22/04/2018 - 16:00  13.6°C  13.6°C  1029.0 hPa  30%  11.7 km/h   --  16.1km  0%  Clear 
 22/04/2018 - 17:00  13.7°C  13.7°C  1029.0 hPa  31%  11.3 km/h   0.01 mm/h  16.1km  0%  Clear 
 22/04/2018 - 18:00  13.2°C  13.2°C  1029.1 hPa  32%  10.5 km/h   --  16.1km  0%  Clear 
 22/04/2018 - 19:00  11.9°C  11.9°C  1029.3 hPa  36%  8.5 km/h   --  16.1km  0%  Clear 
 22/04/2018 - 20:00  10.1°C  10.1°C  1029.4 hPa  43%  6.5 km/h   --  16.1km  0%  Clear 
 22/04/2018 - 21:00  8.3°C  7.7°C  1029.8 hPa  49%  5.6 km/h   0.03 mm/h  16.1km  0%  Clear 
 22/04/2018 - 22:00  6.7°C  6.1°C  1030.2 hPa  55%  5.0 km/h   --  16.1km  0%  Clear 
 22/04/2018 - 23:00  5.5°C  5.5°C  1030.7 hPa  61%  4.6 km/h   --  16.1km  0%  Clear 
 23/04/2018 - 00:00  4.5°C  4.5°C  1030.8 hPa  64%  4.2 km/h   0.02 mm/h  16.1km  0%  Clear 
 23/04/2018 - 01:00  3.8°C  3.8°C  1030.9 hPa  66%  4.1 km/h   --  16.1km  0%  Clear 
 23/04/2018 - 02:00  3.5°C  3.5°C  1031.0 hPa  66%  3.7 km/h   0.04 mm/h  16.1km  0%  Clear 
 23/04/2018 - 03:00  3.0°C  3.0°C  1031.1 hPa  71%  3.6 km/h   --  16.1km  0%  Clear 
 23/04/2018 - 04:00  2.6°C  2.6°C  1031.4 hPa  71%  3.8 km/h   --  16.1km  0%  Clear 
 23/04/2018 - 05:00  2.6°C  2.6°C  1031.7 hPa  71%  4.0 km/h   --  16.1km  0%  Clear 
 23/04/2018 - 06:00  3.1°C  3.1°C  1032.0 hPa  69%  3.9 km/h   --  16.1km  0%  Clear 
 23/04/2018 - 07:00  3.9°C  3.9°C  1032.4 hPa  67%  4.1 km/h   --  16.1km  0%  Clear 
 23/04/2018 - 08:00  5.3°C  5.3°C  1032.5 hPa  63%  4.5 km/h   --  16.1km  0%  Clear 
 23/04/2018 - 09:00  7.4°C  6.7°C  1032.6 hPa  58%  5.3 km/h   --  16.1km  1%  Clear 
 23/04/2018 - 10:00  10.1°C  10.1°C  1032.5 hPa  51%  6.4 km/h   --  16.1km  3%  Clear 
 23/04/2018 - 11:00  12.4°C  12.4°C  1032.1 hPa  46%  7.6 km/h   --  16.1km  4%  Clear 
 23/04/2018 - 12:00  14.0°C  14.0°C  1031.6 hPa  42%  8.9 km/h   --  16.1km  5%  Clear 
 23/04/2018 - 13:00  15.1°C  15.1°C  1030.9 hPa  39%  10.2 km/h   --  16.1km  7%  Clear 
 23/04/2018 - 14:00  15.9°C  15.9°C  1030.1 hPa  37%  11.1 km/h   --  16.1km  11%  Clear 
 23/04/2018 - 15:00  16.7°C  16.7°C  1029.3 hPa  36%  11.5 km/h   --  16.1km  21%  Clear 
 23/04/2018 - 16:00  17.4°C  17.4°C  1028.5 hPa  35%  11.5 km/h   --  16.1km  34%  Partly Cloudy 
 23/04/2018 - 17:00  17.6°C  17.6°C  1027.8 hPa  35%  11.2 km/h   0.01 mm/h  16.1km  43%  Partly Cloudy 
 23/04/2018 - 18:00  17.1°C  17.1°C  1027.3 hPa  38%  10.6 km/h   --  16.1km  44%  Partly Cloudy 
 23/04/2018 - 19:00  15.7°C  15.7°C  1027.0 hPa  43%  9.6 km/h   --  16.1km  41%  Partly Cloudy 
 23/04/2018 - 20:00  14.2°C  14.2°C  1026.8 hPa  49%  9.0 km/h   --  16.1km  37%  Partly Cloudy 
 23/04/2018 - 21:00  12.7°C  12.7°C  1026.7 hPa  53%  9.3 km/h   --  16.1km  30%  Partly Cloudy 
 23/04/2018 - 22:00  11.2°C  11.2°C  1026.7 hPa  56%  10.1 km/h   0.01 mm/h  16.1km  22%  Clear 
 23/04/2018 - 23:00  10.0°C  8.5°C  1026.6 hPa  59%  10.4 km/h   0.01 mm/h  16.1km  16%  Clear 
 24/04/2018 - 00:00  8.7°C  7.1°C  1026.4 hPa  63%  9.5 km/h   --  16.1km  15%  Clear 
 24/04/2018 - 01:00  7.6°C  6.1°C  1026.1 hPa  68%  8.3 km/h   --  16.1km  17%  Clear 
 24/04/2018 - 02:00  6.6°C  5.1°C  1025.8 hPa  73%  7.5 km/h   --  16.1km  21%  Clear 
 24/04/2018 - 03:00  6.1°C  4.5°C  1025.7 hPa  75%  7.5 km/h   --  16.1km  26%  Partly Cloudy 
 24/04/2018 - 04:00  5.9°C  4.2°C  1025.6 hPa  75%  7.9 km/h   --  16.1km  33%  Partly Cloudy 
 24/04/2018 - 05:00  6.2°C  4.4°C  1025.6 hPa  73%  8.6 km/h   --  16.1km  42%  Partly Cloudy 
 24/04/2018 - 06:00  6.9°C  4.9°C  1025.7 hPa  72%  10.0 km/h   --  16.1km  55%  Partly Cloudy 
 24/04/2018 - 07:00  7.9°C  5.8°C  1025.8 hPa  70%  11.6 km/h   --  16.1km  71%  Mostly Cloudy 
 24/04/2018 - 08:00  8.9°C  6.8°C  1025.8 hPa  68%  13.2 km/h   --  16.1km  83%  Mostly Cloudy 
 24/04/2018 - 09:00  10.4°C  10.4°C  1025.7 hPa  65%  14.6 km/h   --  16.1km  88%  Mostly Cloudy 
 24/04/2018 - 10:00  12.1°C  12.1°C  1025.5 hPa  62%  15.9 km/h   --  16.1km  93%  Mostly Cloudy 
 24/04/2018 - 11:00  13.8°C  13.8°C  1025.1 hPa  58%  17.0 km/h   --  16.1km  95%  Overcast 
 24/04/2018 - 12:00  15.2°C  15.2°C  1024.7 hPa  53%  18.1 km/h   --  16.1km  96%  Overcast 
 24/04/2018 - 13:00  16.4°C  16.4°C  1024.1 hPa  49%  19.0 km/h   --  16.1km  97%  Overcast 
 24/04/2018 - 14:00  17.2°C  17.2°C  1023.5 hPa  45%  19.2 km/h   --  16.1km  98%  Overcast 
Test

 

Past weather and reports

Past weatherFind in this section the past weather conditions, weather archive, graphics, reports and statistics.

Current conditions

Current weather condition for MontrealAll you need to know about the current weather conditions for Montreal. Weather data is updated every 10 minutes.

Weather forecast

Current Montreal weatherSince 2004, celinium.com website has provided accurate weather forecast for Montreal's island.